This is the latest recevied weather packets stored in our database for station/object KD0ISH. If no packets are shown the sender has not sent any weather packets the latest 10 day(s).
| Time | Temp. | Humidity | Pressure | Rain* | Wind** | Luminosity | Snow |
|---|---|---|---|---|---|---|---|
| 1778154917 | 7.78° C | 81% | 1019.4 hPa | 0 mm | - | 21 W/m² | - |
| 1778154613 | 7.22° C | 82% | 1019.7 hPa | 0 mm | - | 22 W/m² | - |
| 1778154309 | 7.22° C | 85% | 1019.7 hPa | 0 mm | - | 20 W/m² | - |
| 1778154006 | 6.67° C | 87% | 1019.5 hPa | 0 mm | - | 16 W/m² | - |
| 1778153704 | 6.67° C | 88% | 1019.6 hPa | 0 mm | - | 12 W/m² | - |
| 1778153401 | 6.11° C | 89% | 1019.6 hPa | 0 mm | - | 9 W/m² | - |
| 1778153098 | 6.67° C | 90% | 1019.5 hPa | 0 mm | - | 6 W/m² | - |
| 1778152795 | 6.67° C | 90% | 1019.6 hPa | 0 mm | - | 3 W/m² | - |
| 1778152492 | 6.67° C | 90% | 1019.4 hPa | 0 mm | - | 1 W/m² | - |
| 1778152188 | 6.11° C | 90% | 1019.6 hPa | 0 mm | - | 0 W/m² | - |
| 1778151885 | 6.11° C | 90% | 1019.4 hPa | 0 mm | - | 0 W/m² | - |
| 1778151581 | 6.67° C | 90% | 1019.6 hPa | 0 mm | - | 0 W/m² | - |
| 1778151278 | 6.67° C | 90% | 1019.3 hPa | 0 mm | - | 0 W/m² | - |
| 1778150975 | 6.67° C | 90% | 1019.3 hPa | 0 mm | - | 0 W/m² | - |
| 1778150672 | 6.11° C | 91% | 1019.1 hPa | 0 mm | - | 0 W/m² | - |
| 1778150367 | 6.11° C | 91% | 1019.1 hPa | 0 mm | - | 0 W/m² | - |
| 1778150064 | 6.67° C | 91% | 1019.2 hPa | 0 mm | - | 0 W/m² | - |
| 1778149760 | 6.67° C | 91% | 1019.1 hPa | 0 mm | - | 0 W/m² | - |
| 1778149457 | 6.67° C | 91% | 1019.3 hPa | 0 mm | - | 0 W/m² | - |
| 1778149154 | 6.67° C | 90% | 1019.3 hPa | 0 mm | - | 0 W/m² | - |
| 1778148849 | 6.67° C | 90% | 1019.4 hPa | 0 mm | - | 0 W/m² | - |
| 1778148546 | 6.67° C | 90% | 1019.3 hPa | 0 mm | - | 0 W/m² | - |
| 1778148243 | 6.67° C | 91% | 1019.3 hPa | 0 mm | - | 0 W/m² | - |
| 1778147941 | 6.67° C | 92% | 1019.2 hPa | 0 mm | - | 0 W/m² | - |
| 1778147638 | 6.67° C | 92% | 1019.1 hPa | 0 mm | - | 0 W/m² | - |
* Rain latest hour (hover to see other rain measurements)
** Current wind speed in m/s (hover to see current wind gust speed)